[[{"header":{"parameterUnit":"m.s-1","parameterCategory":1,"la1":30.2991,"la2":30.254,"lo1":-89.0895,"lo2":-89.0444,"dy":0.0017,"dx":0.0017,"nx":28,"ny":28,"refTime":"2025-01-08T03:00:00:Z","depth":0,"parameterNumber":2,"parameterNumberName":"U-component_of_WINDS"},"data":[0,0,0,0,0,0,0,0,0,0,0,0,0,0,0,0,0,0,0,0,0,0,0,0,0,0,0,0,0,0,0,0,0,0,0,0,0,0,0,0,0,0,0,0,0,0,0,0,0,0,0,0,0,0,0,0,0,0,-2.4172,-2.4173,0,-2.4245,-2.4245,-2.4246,-2.4195,-2.4193,-2.419,-2.4188,-2.4267,-2.4271,-2.4275,0,0,0,0,0,0,0,0,0,0,0,0,0,-2.3994,-2.3998,-2.4172,-2.4173,-2.4174,-2.4244,-2.4245,-2.4246,-2.4195,-2.4192,-2.419,-2.4187,-2.4265,-2.427,-2.4275,0,0,0,0,0,0,0,0,0,0,0,0,0,-2.407,-2.3999,-2.4172,-2.4157,-2.4156,-2.4244,-2.4245,-2.4247,-2.4196,-2.4192,-2.4189,-2.4186,-2.4264,-2.427,-2.4276,-2.4384,0,0,-2.4295,-2.4298,0,0,0,0,0,0,0,0,-2.4065,-2.4076,-2.4158,-2.4158,-2.4157,-2.4207,-2.4211,-2.4293,-2.4197,-2.4181,-2.4188,-2.4184,-2.425,-2.4257,-2.4278,-2.4388,-2.4391,-2.4296,-2.43,-2.4303,-2.4304,0,0,0,0,0,0,0,-2.406,-2.4073,-2.4201,-2.4159,-2.4159,-2.4148,-2.4155,-2.4227,-2.4234,-2.4182,-2.4178,-2.4187,-2.4249,-2.4272,-2.428,-2.4393,-2.4296,-2.4301,-2.4305,-2.4308,-2.4597,-2.46,0,0,0,0,0,0,-2.4056,-2.4069,-2.4199,-2.4203,-2.4102,-2.4154,-2.4162,-2.4195,-2.4233,-2.4236,-2.419,-2.4185,-2.4263,-2.4273,-2.4283,-2.4414,-2.4303,-2.4309,-2.4312,-2.4593,-2.4598,-2.4602,0,0,0,0,0,0,-2.4052,-2.4068,-2.4196,-2.4135,-2.415,-2.4161,-2.4198,-2.4198,-2.4221,-2.4239,-2.4241,-2.4213,-2.4261,-2.4274,-2.436,-2.4416,-2.4311,-2.4317,-2.4588,-2.4594,-2.46,-2.4676,0,0,0,0,0,0,-2.4047,-2.4067,-2.4107,-2.4136,-2.4154,-2.4271,-2.4202,-2.4202,-2.4232,-2.4225,-2.4261,-2.4263,-2.4259,-2.435,-2.4366,-2.4422,-2.4322,-2.4583,-2.4591,-2.4598,-2.4668,-2.4684,-2.4696,0,0,0,0,0,-2.4041,-2.4126,-2.4109,-2.4125,-2.4204,-2.4274,-2.4284,-2.4276,-2.4236,-2.4278,-2.429,-2.4262,-2.4406,-2.436,-2.4377,-2.4436,-2.458,-2.4589,-2.4597,-2.4662,-2.4681,-2.4696,0,0,0,0,0,0,-2.4105,-2.413,-2.4111,-2.4208,-2.4239,-2.4265,-2.4317,-2.4296,-2.434,-2.4332,-2.4322,-2.433,-2.4421,-2.4437,-2.4384,-2.4544,-2.4487,-2.45,-2.4531,-2.4548,-2.4562,-2.4557,-2.4327,0,0,0,0,0,-2.413,-2.4183,-2.4202,-2.4286,-2.4302,-2.4307,-2.4337,-2.4328,-2.4361,-2.4374,-2.4392,-2.4426,-2.4478,-2.4514,-2.4563,-2.467,-2.4678,-2.4719,-2.4733,-2.4744,-2.4756,-2.4816,-2.4835,-2.463,-2.463,-2.463,0,0,-2.4183,-2.4203,-2.4237,-2.4299,-2.4322,-2.4379,-2.4319,-2.4381,-2.4424,-2.4384,-2.4466,-2.4481,-2.4518,-2.4615,-2.4658,-2.4631,-2.4814,-2.4755,-2.4764,-2.477,-2.4827,-2.4846,-2.4863,-2.4636,-2.4635,-2.4634,0,0,-2.4309,-2.4328,-2.4401,-2.4425,-2.446,-2.4463,-2.448,-2.4509,-2.4517,-2.4599,-2.4571,-2.4622,-2.4713,-2.4741,-2.4767,-2.4904,-2.4881,-2.492,-2.4995,-2.5053,-2.5069,-2.5083,-2.5134,-2.5153,-2.4931,-2.4932,-2.4932,0,-2.4371,-2.4454,-2.4442,-2.4506,-2.4536,-2.45,-2.4575,-2.4599,-2.4649,-2.4671,-2.4638,-2.4753,-2.4775,-2.4879,-2.4912,-2.4934,-2.4955,-2.4917,-2.5067,-2.5081,-2.5095,-2.5143,-2.5162,-2.4936,-2.4936,-2.4935,-2.4935,0,-2.453,-2.4588,-2.4643,-2.4691,-2.4726,-2.4795,-2.4795,-2.4832,-2.482,-2.4827,-2.4912,-2.4937,-2.4992,-2.5015,-2.5005,-2.5119,-2.5101,-2.5068,-2.5011,-2.5119,-2.5165,-2.5183,-2.4943,-2.4941,-2.494,-2.4939,0,0,-2.47,-2.474,-2.476,-2.4782,-2.4818,-2.4864,-2.4932,-2.4984,-2.5018,-2.5053,-2.5112,-2.519,-2.516,-2.5189,-2.5181,-2.5232,-2.5342,-2.5193,-2.5194,-2.5222,-2.5472,-2.5498,-2.552,-2.5326,-2.5329,-2.5332,-2.547,0,-2.483,-2.4948,-2.4938,-2.5051,-2.5106,-2.5073,-2.5133,-2.5162,-2.517,-2.5219,-2.5228,-2.5284,-2.5239,-2.5257,-2.5305,-2.5318,-2.5392,-2.5308,-2.5383,-2.5386,-2.5377,-2.5544,-2.5571,-2.57,-2.5487,-2.549,-2.5492,0,-2.4997,-2.5038,-2.5155,-2.5184,-2.5207,-2.526,-2.5308,-2.5354,-2.5388,-2.539,-2.5423,-2.5407,-2.5478,-2.5418,-2.5517,-2.546,-2.549,-2.5501,-2.5506,-2.5515,-2.5448,-2.556,-2.5741,-2.5761,-2.552,-2.5518,-2.5516,0,-2.5113,-2.5196,-2.5278,-2.5297,-2.5332,-2.5371,-2.5388,-2.5417,-2.545,-2.5492,-2.5513,-2.5563,-2.5592,-2.5632,-2.5631,-2.5586,-2.5732,-2.5671,-2.5738,-2.5739,-2.5773,-2.5771,-2.5964,-2.5788,-2.5787,-2.5787,-2.5787,0,-2.526,-2.5334,-2.533,-2.5381,-2.5463,-2.5452,-2.5535,-2.5547,-2.5574,-2.5627,-2.5602,-2.5653,-2.5646,-2.5699,-2.5698,-2.5782,-2.5794,-2.58,-2.5799,-2.5804,-2.5803,-2.5825,-2.5817,-2.5792,-2.5791,-2.579,-2.5789,0,-2.5404,-2.5404,-2.5491,-2.5516,-2.5525,-2.5585,-2.5607,-2.5656,-2.5661,-2.5729,-2.5745,-2.5754,-2.5814,-2.5816,-2.5885,-2.5885,-2.5988,-2.5976,-2.5976,-2.5975,-2.6043,-2.6038,-2.6259,-2.6289,-2.6091,-2.6093,-2.6094,0,-2.5499,-2.5555,-2.5586,-2.562,-2.5639,-2.5693,-2.5725,-2.5717,-2.5752,-2.5795,-2.5839,-2.5896,-2.5942,-2.604,-2.6054,-2.6107,-2.6098,-2.6172,-2.6106,-2.611,-2.6103,-2.6101,-2.6107,-2.6186,-2.6188,-2.619,-2.6191,0,-2.567,-2.5667,-2.5714,-2.5762,-2.5802,-2.5839,-2.5874,-2.5903,-2.5899,-2.594,-2.6001,-2.6036,-2.6106,-2.6165,-2.6216,-2.6235,-2.6214,-2.6211,-2.623,-2.6237,-2.6236,-2.624,-2.6014,-2.6207,-2.6206,-2.6204,-2.6204,-2.6203,-2.5794,-2.5843,-2.5873,-2.5927,-2.5951,-2.5985,-2.6032,-2.6043,-2.6092,-2.6148,-2.614,-2.6208,-2.6242,-2.6309,-2.6332,-2.6386,-2.6361,-2.6388,-2.6395,-2.6403,-2.6411,-2.6225,-2.6395,-2.6395,-2.6394,-2.6394,-2.6394,0,-2.5965,-2.5982,-2.6032,-2.6081,-2.6124,-2.6097,-2.6135,-2.6173,-2.6233,-2.6265,-2.631,-2.638,-2.6437,-2.6455,-2.651,-2.655,-2.6542,-2.6566,-2.6564,-2.6569,-2.6429,-2.6409,-2.6571,-2.6571,-2.6571,-2.6571,-2.6571,-2.6571,-2.606,-2.6141,-2.6142,-2.6237,-2.6254,-2.6319,-2.6343,-2.6375,-2.64,-2.6479,-2.6526,-2.6536,-2.6563,-2.662,-2.6672,-2.6675,-2.6698,-2.6727,-2.6727,-2.6597,-2.6579,-2.6562,-2.6543,-2.6731,-2.6731,-2.6863,-2.6864,-2.6865]},{"header":{"parameterUnit":"m.s-1","parameterCategory":1,"la1":30.2991,"la2":30.254,"lo1":-89.0895,"lo2":-89.0444,"dy":0.0017,"dx":0.0017,"nx":28,"ny":28,"refTime":"2025-01-08T03:00:00:Z","depth":0,"parameterNumber":3,"parameterNumberName":"V-component_of_WINDS"},"data":[0,0,0,0,0,0,0,0,0,0,0,0,0,0,0,0,0,0,0,0,0,0,0,0,0,0,0,0,0,0,0,0,0,0,0,0,0,0,0,0,0,0,0,0,0,0,0,0,0,0,0,0,0,0,0,0,0,0,-0.8668,-0.8669,0,-0.8762,-0.8763,-0.8764,-0.8776,-0.8775,-0.8774,-0.8774,-0.887,-0.8874,-0.8877,0,0,0,0,0,0,0,0,0,0,0,0,0,-0.8501,-0.8504,-0.8668,-0.8669,-0.867,-0.8761,-0.8763,-0.8764,-0.8776,-0.8775,-0.8774,-0.8773,-0.8869,-0.8873,-0.8877,0,0,0,0,0,0,0,0,0,0,0,0,0,-0.8582,-0.8505,-0.8668,-0.8688,-0.869,-0.8761,-0.8763,-0.8764,-0.8777,-0.8775,-0.8774,-0.8773,-0.8868,-0.8873,-0.8878,-0.8936,0,0,-0.8894,-0.8896,0,0,0,0,0,0,0,0,-0.8577,-0.8588,-0.8684,-0.8686,-0.869,-0.8756,-0.8739,-0.8822,-0.8777,-0.8744,-0.8774,-0.8772,-0.8833,-0.8841,-0.8862,-0.8941,-0.8945,-0.8894,-0.8897,-0.8899,-0.8901,0,0,0,0,0,0,0,-0.8571,-0.8584,-0.8705,-0.8685,-0.8689,-0.8692,-0.8702,-0.8755,-0.8795,-0.8747,-0.8748,-0.8759,-0.8835,-0.8857,-0.8864,-0.8946,-0.8894,-0.8898,-0.8902,-0.8904,-0.9077,-0.9078,0,0,0,0,0,0,-0.8562,-0.8579,-0.8702,-0.8708,-0.8629,-0.8696,-0.8707,-0.8736,-0.8794,-0.8802,-0.876,-0.8759,-0.8849,-0.8858,-0.8868,-0.894,-0.8899,-0.8904,-0.8907,-0.9075,-0.9077,-0.9079,0,0,0,0,0,0,-0.8558,-0.8573,-0.8698,-0.8644,-0.866,-0.87,-0.8732,-0.8738,-0.8761,-0.8804,-0.8812,-0.8775,-0.8848,-0.886,-0.8919,-0.8943,-0.8906,-0.8911,-0.9074,-0.9076,-0.9078,-0.9084,0,0,0,0,0,0,-0.8554,-0.8572,-0.8594,-0.8644,-0.8663,-0.8748,-0.8734,-0.8741,-0.8769,-0.8769,-0.882,-0.8828,-0.8848,-0.8911,-0.8924,-0.895,-0.8915,-0.9072,-0.9075,-0.9077,-0.9082,-0.9086,-0.909,0,0,0,0,0,-0.8548,-0.8592,-0.8595,-0.861,-0.8692,-0.8749,-0.876,-0.8782,-0.8771,-0.8794,-0.8822,-0.8826,-0.8938,-0.8917,-0.8931,-0.8959,-0.907,-0.9074,-0.9077,-0.908,-0.9085,-0.909,0,0,0,0,0,0,-0.8545,-0.8599,-0.8603,-0.8666,-0.8703,-0.8751,-0.8781,-0.8787,-0.8829,-0.8827,-0.8853,-0.8864,-0.8922,-0.8946,-0.8922,-0.9018,-0.9003,-0.901,-0.9,-0.9006,-0.901,-0.9003,-0.8919,0,0,0,0,0,-0.8551,-0.8593,-0.8639,-0.8689,-0.8708,-0.8741,-0.8767,-0.8781,-0.882,-0.8836,-0.8869,-0.8907,-0.8951,-0.898,-0.9022,-0.9085,-0.9096,-0.9111,-0.9115,-0.9118,-0.9124,-0.9159,-0.9166,-0.909,-0.909,-0.909,0,0,-0.8566,-0.8601,-0.8626,-0.869,-0.872,-0.8763,-0.8754,-0.88,-0.8833,-0.8844,-0.8901,-0.8925,-0.897,-0.9031,-0.9059,-0.9053,-0.9147,-0.9122,-0.9125,-0.9129,-0.9163,-0.917,-0.9176,-0.9093,-0.9092,-0.9092,0,0,-0.8614,-0.8644,-0.869,-0.872,-0.8766,-0.8788,-0.8798,-0.8846,-0.8863,-0.892,-0.8929,-0.8968,-0.9043,-0.9074,-0.91,-0.9158,-0.9164,-0.9171,-0.9193,-0.9227,-0.9233,-0.9238,-0.9259,-0.9267,-0.9177,-0.9177,-0.9177,0,-0.8626,-0.8691,-0.8713,-0.8758,-0.8786,-0.8797,-0.8843,-0.8871,-0.8929,-0.8948,-0.894,-0.9034,-0.9065,-0.9133,-0.9147,-0.9167,-0.918,-0.9166,-0.923,-0.9236,-0.9241,-0.9262,-0.927,-0.9177,-0.9177,-0.9177,-0.9177,0,-0.8704,-0.8749,-0.878,-0.8835,-0.8866,-0.8911,-0.894,-0.8969,-0.8979,-0.9001,-0.906,-0.9097,-0.9147,-0.9164,-0.9175,-0.9234,-0.9228,-0.9225,-0.921,-0.9249,-0.9268,-0.9276,-0.9178,-0.9178,-0.9178,-0.9178,0,0,-0.8755,-0.882,-0.8831,-0.8856,-0.8906,-0.8941,-0.8987,-0.9036,-0.906,-0.9099,-0.9138,-0.9201,-0.9197,-0.9227,-0.9241,-0.927,-0.9314,-0.9263,-0.9265,-0.9272,-0.9381,-0.9384,-0.9393,-0.9317,-0.9319,-0.932,-0.9378,0,-0.8809,-0.8891,-0.8911,-0.8981,-0.9023,-0.9033,-0.9073,-0.9108,-0.913,-0.9168,-0.9192,-0.9236,-0.9229,-0.9246,-0.9275,-0.9303,-0.9337,-0.9299,-0.9355,-0.9357,-0.9344,-0.9404,-0.9407,-0.946,-0.9386,-0.9387,-0.9388,0,-0.8884,-0.8924,-0.8998,-0.9043,-0.9061,-0.9097,-0.9142,-0.9179,-0.9219,-0.9233,-0.9264,-0.9276,-0.9324,-0.9305,-0.9372,-0.9346,-0.937,-0.9386,-0.9389,-0.9396,-0.9375,-0.9413,-0.9477,-0.9485,-0.94,-0.9399,-0.9398,0,-0.8915,-0.8987,-0.904,-0.9061,-0.9114,-0.9139,-0.9162,-0.9201,-0.9228,-0.9268,-0.9287,-0.9332,-0.9357,-0.9391,-0.9414,-0.9399,-0.9479,-0.9463,-0.9492,-0.9492,-0.951,-0.9509,-0.958,-0.9523,-0.9523,-0.9523,-0.9523,0,-0.8974,-0.9019,-0.9055,-0.9088,-0.9138,-0.916,-0.921,-0.9233,-0.9267,-0.9305,-0.9316,-0.9352,-0.9379,-0.9418,-0.9436,-0.9489,-0.95,-0.9513,-0.9517,-0.9512,-0.9511,-0.9529,-0.9527,-0.9525,-0.9525,-0.9524,-0.9524,0,-0.9018,-0.9043,-0.9102,-0.9147,-0.9159,-0.9195,-0.9233,-0.9266,-0.9287,-0.9334,-0.9347,-0.9381,-0.9427,-0.9453,-0.9512,-0.9524,-0.9582,-0.9585,-0.9569,-0.9571,-0.9599,-0.9596,-0.9686,-0.9698,-0.9633,-0.9633,-0.9634,0,-0.9054,-0.9089,-0.9137,-0.9163,-0.9187,-0.9229,-0.9257,-0.9279,-0.9308,-0.9355,-0.9382,-0.9429,-0.9468,-0.9541,-0.9571,-0.9616,-0.962,-0.9648,-0.9627,-0.9621,-0.9621,-0.9619,-0.9623,-0.9652,-0.9653,-0.9653,-0.9654,0,-0.9117,-0.9128,-0.9168,-0.9212,-0.9245,-0.9281,-0.9316,-0.9337,-0.9365,-0.9397,-0.9444,-0.9474,-0.9533,-0.958,-0.9627,-0.9651,-0.9657,-0.966,-0.9669,-0.9665,-0.9655,-0.9661,-0.958,-0.9658,-0.9658,-0.9657,-0.9657,-0.9657,-0.9159,-0.919,-0.9229,-0.9273,-0.9302,-0.9335,-0.9367,-0.9392,-0.9432,-0.9481,-0.9492,-0.9542,-0.958,-0.9644,-0.9669,-0.9708,-0.9703,-0.9717,-0.972,-0.9723,-0.9725,-0.9647,-0.9717,-0.9717,-0.9717,-0.9717,-0.9717,0,-0.9223,-0.9248,-0.9288,-0.9337,-0.9372,-0.9373,-0.9413,-0.9441,-0.9485,-0.952,-0.9558,-0.9612,-0.9656,-0.9689,-0.9735,-0.976,-0.9764,-0.9772,-0.9771,-0.9776,-0.9726,-0.9714,-0.9768,-0.9768,-0.9768,-0.9768,-0.9768,-0.9768,-0.9261,-0.9314,-0.9328,-0.9396,-0.942,-0.9469,-0.9491,-0.9522,-0.955,-0.9609,-0.9646,-0.9667,-0.9701,-0.9749,-0.9791,-0.9799,-0.9816,-0.9823,-0.9832,-0.9785,-0.978,-0.9775,-0.9763,-0.9826,-0.9826,-0.9878,-0.9879,-0.9879]}]]